Weather History for K36U - August, 2013

Change the Weather History Date:

Sunday, August 4, 2013

  Actual Average (KPVU) Record (KPVU)
Temperature  
Mean Temperature 68 °F -  
Max Temperature 89 °F 88 °F 96 °F (2008)
Min Temperature 46 °F 58 °F 53 °F (1996)
Cooling Degree Days 2    
Growing Degree Days 18 (Base 50)    
Moisture  
Dew Point 38 °F    
Average Humidity 39    
Maximum Humidity 81    
Minimum Humidity 13    
Precipitation  
Precipitation 0.00 in - - ()
Sea Level Pressure  
Sea Level Pressure 30.17 in    
Wind  
Wind Speed 4 mph (SW)    
Max Wind Speed 18 mph    
Max Gust Speed 28 mph    
Visibility 10 miles    
Events      
Averages and records for this station are not official NWS values.
T = Trace of Precipitation, MM = Missing Value Source: NWS Daily Summary

Daily Weather History Graph

Daily Weather History Graph

Search for Another Location

Airport or City:

Trip Planner

Search our weather history database for the weather conditions in past years. The results will help you decide how hot, cold, wet, or windy it might be!

Date:

Astronomy

Aug. 04, 2013 Rise Set
Actual Time 6:26 AM MDT 8:36 PM MDT
Civil Twilight 5:55 AM MDT 9:06 PM MDT
Nautical Twilight 5:18 AM MDT 9:44 PM MDT
Astronomical Twilight 4:37 AM MDT 10:24 PM MDT
Moon 4:30 AM MDT (8/4) 7:02 PM MDT (8/4)
Length of Visible Light 15h 11m
Length of Day
14h 10m
Waning Crescent, 4% of the Moon is Illuminated
Aug 4
Waning Crescent
Aug 6
New
Aug 14
First Quarter
Aug 20
Full
Aug 28
Last Quarter

Hourly Weather History & Observations

Time (MDT) Temp. Dew Point Humidity Pressure Visibility Wind Dir Wind Speed Gust Speed Precip Events Conditions
12:15 AM 55.4 °F 41.0 °F 58% 30.16 in 10.0 mi SW 3.5 mph - N/A   Clear
12:35 AM 55.4 °F 41.0 °F 58% 30.16 in 10.0 mi Calm Calm - N/A   Clear
12:55 AM 59.0 °F 39.2 °F 48% 30.17 in 10.0 mi Calm Calm - N/A   Clear
1:15 AM 53.6 °F 41.0 °F 62% 30.17 in 10.0 mi ESE 3.5 mph - N/A   Clear
1:35 AM 51.8 °F 42.8 °F 71% 30.17 in 10.0 mi Calm Calm - N/A   Clear
1:55 AM 53.6 °F 41.0 °F 62% 30.18 in 10.0 mi South 3.5 mph - N/A   Clear
2:15 AM 53.6 °F 41.0 °F 62% 30.18 in 10.0 mi Calm Calm - N/A   Clear
2:35 AM 51.8 °F 41.0 °F 67% 30.18 in 10.0 mi Calm Calm - N/A   Clear
2:55 AM 51.8 °F 41.0 °F 67% 30.17 in 10.0 mi Calm Calm - N/A   Clear
3:15 AM 51.8 °F 41.0 °F 67% 30.18 in 10.0 mi Calm Calm - N/A   Clear
3:35 AM 51.8 °F 41.0 °F 67% 30.18 in 10.0 mi Calm Calm - N/A   Clear
3:55 AM 50.0 °F 41.0 °F 71% 30.18 in 10.0 mi ESE 4.6 mph - N/A   Clear
4:15 AM 51.8 °F 41.0 °F 67% 30.18 in 10.0 mi Calm Calm - N/A   Mostly Cloudy
4:35 AM 51.8 °F 39.2 °F 62% 30.18 in 10.0 mi Calm Calm - N/A   Scattered Clouds
4:55 AM 50.0 °F 41.0 °F 71% 30.19 in 10.0 mi Calm Calm - N/A   Clear
5:15 AM 48.2 °F 41.0 °F 76% 30.19 in 10.0 mi ENE 3.5 mph - N/A   Clear
5:35 AM 48.2 °F 41.0 °F 76% 30.19 in 10.0 mi Calm Calm - N/A   Clear
5:55 AM 50.0 °F 41.0 °F 71% 30.20 in 10.0 mi Calm Calm - N/A   Clear
6:15 AM 46.4 °F 41.0 °F 81% 30.20 in 10.0 mi Calm Calm - N/A   Clear
6:35 AM 48.2 °F 39.2 °F 71% 30.21 in 10.0 mi Calm Calm - N/A   Clear
6:55 AM 46.4 °F 41.0 °F 81% 30.21 in 10.0 mi Calm Calm - N/A   Clear
7:15 AM 50.0 °F 42.8 °F 76% 30.22 in 10.0 mi Calm Calm - N/A   Clear
7:35 AM 51.8 °F 42.8 °F 71% 30.22 in 10.0 mi Calm Calm - N/A   Clear
7:55 AM 55.4 °F 42.8 °F 63% 30.24 in 10.0 mi Calm Calm - N/A   Clear
8:15 AM 57.2 °F 44.6 °F 63% 30.24 in 10.0 mi Calm Calm - N/A   Clear
8:35 AM 59.0 °F 44.6 °F 59% 30.24 in 10.0 mi Calm Calm - N/A   Clear
8:55 AM 62.6 °F 42.8 °F 48% 30.24 in 10.0 mi Calm Calm - N/A   Clear
9:15 AM 64.4 °F 41.0 °F 42% 30.24 in 10.0 mi Calm Calm - N/A   Clear
9:35 AM 64.4 °F 42.8 °F 45% 30.24 in 10.0 mi Calm Calm - N/A   Clear
9:55 AM 66.2 °F 39.2 °F 37% 30.23 in 10.0 mi Calm Calm - N/A   Clear
10:15 AM 69.8 °F 39.2 °F 33% 30.23 in 10.0 mi Calm Calm - N/A   Clear
10:35 AM 71.6 °F 41.0 °F 33% 30.23 in 10.0 mi Calm Calm - N/A   Clear
10:55 AM 77.0 °F 39.2 °F 26% 30.22 in 10.0 mi Calm Calm - N/A   Clear
11:15 AM 82.4 °F 35.6 °F 19% 30.21 in 10.0 mi WSW 6.9 mph - N/A   Clear
11:35 AM 86.0 °F 32.0 °F 14% 30.20 in 10.0 mi SW 9.2 mph - N/A   Clear
11:55 AM 86.0 °F 32.0 °F 14% 30.20 in 10.0 mi SW 16.1 mph 19.6 mph N/A   Clear
12:15 PM 86.0 °F 32.0 °F 14% 30.20 in 10.0 mi SW 15.0 mph 20.7 mph N/A   Clear
12:35 PM 86.0 °F 32.0 °F 14% 30.20 in 10.0 mi SSW 13.8 mph 18.4 mph N/A   Clear
12:55 PM 86.0 °F 32.0 °F 14% 30.19 in 10.0 mi WSW 15.0 mph 21.9 mph N/A   Clear
1:15 PM 87.8 °F 33.8 °F 15% 30.19 in 10.0 mi SW 11.5 mph 20.7 mph N/A   Clear
1:35 PM 87.8 °F 33.8 °F 15% 30.19 in 10.0 mi SW 15.0 mph 20.7 mph N/A   Clear
1:55 PM 87.8 °F 33.8 °F 15% 30.18 in 10.0 mi SW 18.4 mph 24.2 mph N/A   Clear
2:15 PM 89.6 °F 33.8 °F 14% 30.18 in 10.0 mi SW 18.4 mph 27.6 mph N/A   Clear
2:35 PM 89.6 °F 33.8 °F 14% 30.17 in 10.0 mi SW 16.1 mph 23.0 mph N/A   Clear
2:55 PM 89.6 °F 33.8 °F 14% 30.16 in 10.0 mi WSW 17.3 mph 24.2 mph N/A   Clear
3:15 PM 89.6 °F 33.8 °F 14% 30.15 in 10.0 mi SW 16.1 mph 23.0 mph N/A   Clear
3:35 PM 89.6 °F 33.8 °F 14% 30.15 in 10.0 mi SW 17.3 mph 24.2 mph N/A   Clear
3:55 PM 89.6 °F 33.8 °F 14% 30.14 in 10.0 mi SW 18.4 mph 23.0 mph N/A   Clear
4:15 PM 89.6 °F 33.8 °F 14% 30.13 in 10.0 mi SW 15.0 mph 24.2 mph N/A   Clear
4:35 PM 87.8 °F 32.0 °F 14% 30.13 in 10.0 mi WSW 12.7 mph - N/A   Clear
4:55 PM 87.8 °F 33.8 °F 15% 30.12 in 10.0 mi SW 12.7 mph 20.7 mph N/A   Clear
5:15 PM 87.8 °F 32.0 °F 14% 30.12 in 10.0 mi SW 8.1 mph - N/A   Clear
5:35 PM 89.6 °F 32.0 °F 13% 30.12 in 10.0 mi SW 5.8 mph 10.4 mph N/A   Clear
5:55 PM 89.6 °F 32.0 °F 13% 30.11 in 10.0 mi WSW 10.4 mph - N/A   Clear
6:15 PM 89.6 °F 32.0 °F 13% 30.10 in 10.0 mi SW 9.2 mph - N/A   Clear
6:35 PM 89.6 °F 32.0 °F 13% 30.10 in 10.0 mi SW 6.9 mph - N/A   Clear
6:55 PM 87.8 °F 32.0 °F 14% 30.10 in 10.0 mi WSW 10.4 mph - N/A   Clear
7:15 PM 86.0 °F 32.0 °F 14% 30.10 in 10.0 mi WSW 9.2 mph - N/A   Clear
7:35 PM 82.4 °F 33.8 °F 17% 30.10 in 10.0 mi SW 8.1 mph - N/A   Clear
7:55 PM 80.6 °F 35.6 °F 20% 30.10 in 10.0 mi SW 6.9 mph - N/A   Clear
8:15 PM 78.8 °F 35.6 °F 21% 30.10 in 10.0 mi WSW 5.8 mph - N/A   Clear
8:35 PM 78.8 °F 37.4 °F 23% 30.11 in 10.0 mi Calm Calm - N/A   Clear
8:55 PM 77.0 °F 41.0 °F 28% 30.11 in 10.0 mi Calm Calm - N/A   Clear
9:15 PM 69.8 °F 44.6 °F 40% 30.11 in 10.0 mi East 5.8 mph - N/A   Clear
9:35 PM 69.8 °F 44.6 °F 40% 30.13 in 10.0 mi ESE 5.8 mph - N/A   Clear
9:55 PM 69.8 °F 41.0 °F 35% 30.13 in 10.0 mi Calm Calm - N/A   Clear
10:15 PM 71.6 °F 37.4 °F 29% 30.14 in 10.0 mi SE 3.5 mph - N/A   Clear
10:35 PM 71.6 °F 37.4 °F 29% 30.15 in 10.0 mi Calm Calm - N/A   Clear
10:55 PM 69.8 °F 44.6 °F 40% 30.16 in 10.0 mi Calm Calm - N/A   Clear
11:15 PM 69.8 °F 41.0 °F 35% 30.16 in 10.0 mi Calm Calm - N/A   Clear
11:35 PM 68.0 °F 42.8 °F 40% 30.16 in 10.0 mi Calm Calm - N/A   Clear
11:55 PM 71.6 °F 41.0 °F 33% 30.16 in 10.0 mi Calm Calm - N/A   Clear